Dewpoint
5 5 4 5 6 6 6 5 6 7 6 7 7 6 6 7 8 7 8 8 7 7 6 6 6 6 5 5 5 6 7 6 5 5 6 6 6 7
3 3 3 3 3 4 5 4 5 6 7 7 7 6 6 7 7 7 7 6 6 6 5 5 5 5 4 4 4 5 4 3 2 0 0 1 2 -5
4 3 3 3 3 3 4 4 5 5 6 6 7 7 7 7 6 6 6 6 5 5 4 4 3 2 -1 -7 -16 -23 -26 -28 -28 -23 -16 -17 -17 -20
-3 0 3 3 3 2 2 3 4 4 5 6 5 5 5 6 6 6 5 5 4 3 2 -1 -6 -13 -16 -20 -24 -25 -25 -25 -25 -24 -25 -24 -23 -23
-2 1 2 3 3 3 2 2 3 3 3 4 5 5 5 5 4 4 4 2 -4 -14 -24 -25 -25 -25 -24 -24 -24 -24 -23 -23 -23 -23 -23 -23 -22 -21
-6 -2 -3 2 3 3 2 2 2 -2 -2 2 4 4 4 3 1 -4 -15 -19 -21 -21 -21 -22 -23 -23 -23 -23 -22 -21 -20 -19 -19 -19 -19 -18 -18 -17
-11 -14 -14 -15 -15 -11 -10 -13 -18 -20 -12 -7 -10 -12 -14 -16 -18 -21 -23 -23 -22 -21 -19 -21 -22 -21 -19 -19 -18 -18 -18 -19 -19 -18 -17 -15 -15 -14
-18 -17 -18 -19 -20 -21 -21 -23 -24 -26 -25 -25 -25 -24 -23 -23 -23 -23 -22 -22 -20 -18 -20 -21 -20 -18 -18 -18 -18 -18 -18 -17 -16 -16 -16 -14 -13 -12
-21 -22 -22 -21 -22 -22 -23 -25 -25 -24 -25 -24 -23 -22 -22 -21 -21 -21 -21 -21 -20 -19 -19 -19 -18 -18 -18 -18 -18 -17 -15 -15 -15 -14 -12 -10 -8 -8
-20 -19 -20 -20 -21 -21 -22 -23 -24 -24 -23 -23 -22 -21 -21 -21 -21 -21 -20 -20 -19 -20 -19 -18 -18 -18 -18 -17 -17 -16 -16 -15 -13 -12 -12 -12 -12 -11
-20 -21 -21 -22 -21 -21 -21 -22 -23 -22 -22 -22 -21 -21 -21 -20 -20 -20 -19 -19 -19 -20 -19 -18 -17 -18 -18 -17 -16 -17 -15 -13 -12 -12 -12 -11 -10 -9
-18 -19 -20 -21 -21 -21 -21 -22 -22 -22 -21 -20 -20 -20 -21 -20 -20 -19 -18 -18 -18 -19 -18 -17 -18 -18 -18 -17 -18 -16 -15 -12 -12 -12 -11 -11 -9 -8
-17 -18 -19 -19 -20 -21 -21 -21 -21 -20 -20 -20 -19 -19 -19 -19 -19 -18 -17 -17 -18 -19 -18 -17 -17 -17 -17 -16 -19 -17 -14 -12 -11 -11 -10 -10 -9 -7
-16 -17 -17 -17 -18 -19 -19 -19 -20 -20 -19 -19 -18 -18 -18 -18 -17 -17 -16 -16 -17 -17 -16 -16 -16 -16 -16 -16 -16 -17 -14 -12 -10 -10 -10 -10 -10 -9
-12 -15 -16 -16 -16 -17 -18 -18 -18 -19 -18 -17 -17 -17 -18 -17 -16 -16 -15 -16 -17 -16 -16 -16 -15 -15 -15 -14 -13 -15 -11 -12 -10 -10 -10 -10 -10 -9
-7 -12 -13 -14 -14 -16 -15 -16 -17 -17 -17 -16 -15 -16 -17 -17 -16 -15 -14 -16 -16 -16 -15 -15 -15 -15 -15 -14 -13 -13 -10 -10 -10 -10 -10 -10 -10 -9
-5 -7 -10 -13 -13 -13 -13 -14 -15 -15 -14 -14 -14 -15 -17 -17 -16 -14 -14 -16 -16 -16 -15 -14 -14 -14 -15 -14 -13 -11 -10 -10 -10 -9 -9 -10 -10 -10
-5 -6 -8 -11 -12 -13 -14 -14 -14 -14 -13 -13 -13 -13 -16 -16 -15 -14 -15 -17 -16 -15 -15 -15 -14 -15 -15 -16 -14 -12 -11 -10 -10 -10 -9 -9 -9 -10
-5 -5 -6 -9 -11 -12 -13 -13 -13 -13 -12 -11 -11 -12 -14 -15 -14 -15 -16 -16 -16 -16 -15 -14 -14 -13 -13 -12 -13 -11 -10 -10 -9 -9 -9 -9 -9 -9
-4 -4 -4 -5 -8 -10 -11 -12 -12 -11 -10 -10 -10 -9 -12 -12 -14 -15 -16 -15 -15 -15 -14 -14 -13 -12 -11 -10 -11 -13 -10 -10 -9 -9 -9 -9 -9 -9
-1 -1 -2 -2 -3 -6 -6 -8 -5 -6 -7 -7 -7 -7 -6 -6 -10 -14 -14 -14 -15 -14 -14 -13 -12 -12 -10 -11 -11 -12 -11 -10 -9 -9 -9 -9 -9 -9
-2 -2 -2 -3 -3 -3 -4 -4 -4 -4 -4 -5 -5 -5 -5 -5 -7 -14 -14 -14 -14 -13 -12 -13 -13 -13 -11 -11 -11 -10 -10 -10 -9 -9 -9 -8 -7 -8
-2 -2 -2 -3 -3 -4 -4 -4 -4 -4 -4 -5 -5 -5 -5 -6 -8 -9 -13 -13 -13 -12 -12 -13 -13 -13 -11 -11 -11 -11 -10 -9 -9 -9 -9 -8 -7 -6
Wind_Speed
10 12 13 12 11 10 11 10 12 9 13 9 8 8 11 11 9 8 4 3 2 3 5 9 10 12 14 15 17 17 18 19 19 19 20 22 24 25
14 14 14 14 15 14 12 10 8 10 7 8 8 6 8 7 9 4 3 2 6 9 9 11 13 16 17 17 17 17 18 20 20 20 19 19 19 20
16 16 16 14 12 12 13 13 13 9 7 9 7 8 8 8 8 7 11 11 12 10 12 14 14 13 13 13 15 16 15 17 17 17 18 18 19 18
16 16 15 14 12 10 12 12 10 10 8 7 9 10 9 9 9 8 10 13 13 12 11 11 12 12 13 13 13 13 14 14 14 14 16 17 17 18
14 13 12 13 12 12 12 12 13 10 9 9 7 8 8 7 6 8 10 10 9 9 10 10 10 10 10 12 12 12 13 13 14 14 15 16 16 15
15 14 11 10 10 11 10 10 12 11 10 8 7 6 6 6 6 6 5 6 6 4 5 7 8 9 10 10 11 12 13 14 15 16 16 16 16 16
15 14 12 11 11 11 10 10 10 9 8 7 6 6 6 5 6 5 4 5 4 3 5 7 6 6 7 8 11 13 15 15 15 15 15 14 14 13
16 15 14 13 12 11 11 10 9 8 7 7 6 6 5 5 5 4 4 3 3 5 7 7 6 6 9 12 13 14 14 13 12 12 14 14 16 18
17 15 15 14 12 12 10 10 9 8 7 7 6 5 5 4 5 5 6 6 6 7 8 7 6 8 13 14 13 10 8 10 16 16 17 17 16 18
19 18 17 15 14 12 11 10 9 8 8 7 6 6 6 6 6 6 7 7 9 9 10 7 10 12 13 12 9 6 15 16 16 17 19 20 21 21
20 19 19 17 15 15 13 12 11 11 10 9 9 9 9 9 9 9 7 6 8 11 11 10 13 15 12 7 4 15 18 16 17 20 20 20 20 22
23 22 21 20 17 16 15 15 14 12 12 11 10 10 10 10 10 9 9 9 8 9 8 12 12 13 8 5 10 16 14 16 20 19 18 17 15 19
26 24 22 21 19 17 18 17 16 14 13 13 12 12 12 11 10 9 10 10 9 8 12 12 12 13 14 19 16 16 20 21 18 16 12 16 17 18
29 26 23 22 22 19 19 18 18 17 16 16 15 14 13 12 10 11 11 11 11 9 10 12 13 15 18 22 23 22 20 19 16 12 21 20 19 21
29 26 25 24 23 23 21 20 20 20 19 18 16 16 14 13 13 12 12 12 11 11 11 11 13 15 16 19 25 25 27 23 11 23 21 24 23 24
30 28 28 26 26 24 23 23 23 20 20 18 17 15 14 13 13 13 13 12 10 11 12 13 14 16 18 19 20 22 16 19 22 22 26 27 23 22
28 27 29 31 31 29 28 25 24 23 22 19 17 16 14 14 12 12 13 13 11 11 12 14 14 16 18 19 18 11 17 19 21 27 27 29 26 21
26 29 31 35 36 33 31 28 27 26 23 20 19 17 15 13 12 14 13 13 12 12 11 13 14 15 17 16 12 16 13 22 25 23 24 28 31 25
27 29 32 34 36 35 32 30 28 25 22 21 19 17 15 14 13 13 13 13 12 11 11 12 12 14 16 20 21 13 21 22 25 25 27 28 32 29
30 32 33 33 34 35 32 29 28 25 24 22 21 18 14 12 15 14 14 14 12 11 11 12 11 12 14 18 22 23 19 22 24 27 29 30 30 29
32 35 36 35 35 32 28 27 28 27 24 23 21 17 17 15 13 16 14 14 12 12 12 12 12 13 15 16 19 22 20 19 17 21 25 28 29 34
31 34 36 36 36 34 29 28 29 28 30 27 24 23 21 17 13 15 15 14 12 13 12 11 12 13 12 14 18 21 24 22 17 17 13 15 20 25
21 24 28 29 31 32 29 26 26 28 29 26 25 23 20 17 12 14 15 14 12 12 11 11 12 11 11 13 15 18 21 22 24 21 13 11 14 16
Wind_Direction
299 289 284 296 303 308 305 313 319 315 317 319 303 322 309 303 297 281 309 301 271 256 279 277 283 287 286 287 281 277 273 274 276 277 275 271 269 268
297 295 298 303 304 304 301 310 316 312 297 285 288 287 293 293 315 302 283 300 284 285 295 295 291 290 290 289 280 273 275 278 279 279 279 277 277 277
300 294 291 294 306 307 308 305 299 289 281 299 290 283 276 288 283 278 291 300 300 299 298 292 291 297 294 292 291 286 283 282 284 280 278 278 272 269
304 299 289 286 288 297 313 313 310 300 294 267 277 285 277 281 276 279 286 299 296 296 299 300 297 294 292 289 288 287 290 290 288 288 288 284 281 279
300 307 297 286 280 288 294 295 296 301 298 292 269 266 264 260 259 278 294 296 288 292 293 294 296 296 294 294 296 298 297 299 299 298 296 293 292 287
293 297 302 301 294 293 290 280 290 296 294 289 280 266 256 264 282 293 292 284 286 286 288 294 302 303 303 306 306 306 308 311 309 305 300 295 290 288
290 291 290 292 292 291 288 289 292 292 284 276 273 270 271 276 277 278 293 309 307 293 305 318 312 316 309 303 302 304 303 303 301 298 296 295 293 287
284 285 286 287 289 287 287 287 285 282 285 280 269 265 268 268 279 290 296 296 306 296 324 321 320 322 321 314 314 313 311 309 312 314 306 301 295 296
276 276 277 279 280 280 278 278 282 284 281 279 276 274 269 278 288 300 312 315 311 314 323 323 322 334 324 320 317 312 315 316 314 313 313 311 305 302
270 273 273 274 274 272 270 270 272 273 272 272 276 281 284 286 292 303 308 310 313 315 324 326 322 330 330 321 316 324 328 316 311 308 303 300 299 298
265 265 267 265 263 266 264 263 262 263 265 265 267 268 276 283 289 291 293 304 309 309 315 318 325 324 331 311 291 325 321 312 309 309 306 305 301 297
261 260 260 263 257 258 258 259 258 259 261 264 269 272 272 277 281 278 286 294 299 305 293 315 326 331 324 288 311 320 314 316 317 313 305 300 301 303
262 260 260 262 260 256 255 255 259 256 258 262 266 269 272 274 275 276 281 286 287 284 295 311 318 321 317 309 319 330 329 327 323 322 323 313 313 313
262 263 260 255 257 255 252 253 253 256 258 262 264 263 268 273 269 273 281 287 291 291 290 302 309 316 316 316 321 325 325 331 331 329 330 321 319 321
262 258 254 252 253 254 249 247 249 252 253 256 261 264 269 267 266 267 271 276 277 284 291 294 299 304 308 310 313 325 329 332 334 326 321 319 325 326
261 256 251 251 251 251 248 245 248 247 250 256 259 264 264 264 266 271 276 275 266 275 280 287 296 303 306 306 312 319 323 320 324 324 318 318 323 322
266 259 250 246 245 245 245 244 247 247 248 251 256 259 260 265 270 275 275 271 263 258 264 278 289 298 306 312 316 313 318 317 323 321 317 317 321 323
260 255 252 248 247 246 247 247 246 246 247 248 249 255 260 265 271 276 269 264 264 265 268 272 284 295 304 313 314 321 325 325 323 320 322 325 323 329
255 252 249 250 251 250 248 247 248 247 248 246 247 249 251 258 273 280 269 263 263 266 273 282 293 306 315 313 319 326 329 328 327 327 329 327 320 327
253 255 253 252 252 251 250 248 246 243 242 240 242 241 247 263 273 277 267 261 259 265 275 284 295 301 304 307 309 323 330 332 332 327 328 324 322 326
253 257 259 258 255 255 250 244 243 243 240 241 240 237 242 249 267 273 263 255 254 263 276 288 295 299 297 304 306 318 329 337 336 329 324 321 326 328
262 260 261 262 262 259 253 244 242 241 238 232 234 239 245 247 248 262 259 249 252 262 273 287 295 301 306 313 317 325 331 337 340 336 341 329 322 309
271 272 271 268 264 263 260 250 244 241 242 236 236 238 241 240 241 255 250 246 251 264 278 290 298 306 311 321 322 329 336 343 345 350 359 350 329 319
Height
1466 1465 1463 1461 1460 1458 1457 1456 1453 1450 1447 1445 1443 1443 1442 1440 1440 1440 1439 1440 1442 1445 1445 1446 1447 1447 1446 1446 1446 1445 1445 1445 1445 1445 1445 1444 1444 1446
1462 1462 1460 1458 1456 1455 1453 1452 1452 1450 1447 1445 1443 1441 1441 1441 1441 1440 1440 1441 1442 1442 1442 1442 1443 1442 1441 1440 1440 1440 1440 1440 1439 1439 1439 1440 1439 1440
1459 1458 1456 1455 1453 1452 1450 1449 1447 1446 1445 1443 1442 1441 1439 1439 1439 1439 1439 1439 1438 1439 1439 1439 1438 1438 1438 1438 1437 1437 1436 1436 1435 1435 1435 1435 1434 1432
1456 1454 1452 1451 1450 1449 1447 1445 1444 1442 1442 1441 1440 1440 1439 1438 1438 1438 1438 1438 1437 1437 1437 1436 1436 1435 1434 1433 1433 1432 1432 1431 1430 1429 1429 1429 1428 1427
1453 1451 1449 1448 1447 1446 1444 1443 1441 1439 1438 1437 1436 1436 1436 1436 1436 1437 1436 1436 1436 1435 1434 1434 1433 1432 1431 1430 1429 1428 1427 1426 1425 1424 1423 1422 1420 1419
1450 1448 1447 1445 1444 1442 1441 1440 1438 1437 1436 1435 1434 1434 1434 1433 1433 1434 1435 1435 1434 1434 1432 1432 1431 1430 1428 1427 1425 1424 1423 1421 1420 1419 1418 1416 1415 1414
1446 1445 1443 1442 1441 1439 1438 1437 1436 1435 1433 1432 1432 1432 1432 1431 1431 1431 1432 1432 1432 1432 1431 1430 1428 1427 1425 1424 1422 1421 1419 1417 1415 1414 1412 1411 1410 1409
1442 1441 1440 1439 1438 1437 1436 1435 1433 1432 1432 1430 1429 1428 1429 1430 1430 1430 1429 1428 1428 1429 1429 1428 1427 1426 1424 1422 1420 1418 1415 1413 1411 1410 1409 1407 1405 1403
1436 1435 1435 1434 1434 1433 1432 1431 1431 1431 1430 1429 1428 1427 1426 1426 1426 1427 1428 1427 1425 1424 1425 1424 1423 1422 1420 1417 1416 1414 1412 1410 1407 1405 1403 1401 1399 1397
1431 1432 1430 1430 1430 1429 1429 1429 1428 1426 1426 1426 1426 1427 1427 1426 1425 1425 1426 1425 1425 1423 1421 1420 1419 1418 1417 1414 1412 1412 1410 1407 1404 1401 1399 1396 1393 1391
1425 1425 1425 1425 1425 1425 1425 1425 1425 1424 1423 1423 1422 1421 1422 1422 1423 1422 1420 1421 1421 1421 1420 1418 1416 1413 1412 1411 1410 1409 1406 1404 1401 1397 1394 1391 1388 1384
1419 1419 1419 1420 1421 1421 1420 1421 1421 1421 1420 1419 1420 1419 1419 1419 1420 1419 1419 1419 1417 1416 1416 1416 1413 1412 1409 1407 1407 1405 1402 1400 1396 1392 1389 1386 1383 1380
1413 1413 1414 1415 1415 1416 1417 1417 1417 1418 1418 1417 1416 1416 1416 1417 1416 1416 1417 1416 1414 1413 1411 1411 1410 1408 1407 1403 1401 1398 1396 1393 1390 1386 1383 1381 1379 1376
1405 1408 1409 1409 1409 1409 1410 1412 1413 1413 1413 1413 1412 1412 1412 1413 1413 1413 1413 1412 1412 1412 1409 1407 1406 1404 1402 1398 1395 1393 1390 1387 1384 1381 1378 1375 1374 1370
1398 1399 1401 1402 1404 1403 1403 1405 1406 1408 1408 1408 1408 1408 1408 1409 1408 1408 1407 1408 1407 1406 1406 1404 1403 1400 1399 1395 1391 1388 1382 1380 1379 1377 1373 1370 1367 1364
1389 1392 1394 1394 1396 1397 1397 1398 1399 1401 1402 1402 1403 1403 1403 1403 1403 1403 1403 1402 1402 1402 1402 1400 1399 1397 1394 1393 1390 1386 1383 1378 1375 1373 1368 1364 1362 1359
1382 1383 1385 1385 1386 1389 1390 1391 1393 1394 1395 1397 1397 1397 1397 1398 1398 1398 1398 1399 1398 1397 1398 1397 1395 1393 1391 1389 1386 1383 1379 1375 1372 1368 1363 1357 1356 1353
1373 1373 1375 1375 1376 1379 1381 1384 1386 1387 1389 1391 1392 1392 1393 1393 1393 1393 1393 1394 1393 1393 1393 1393 1391 1389 1387 1386 1383 1379 1376 1371 1367 1363 1359 1353 1347 1347
1365 1364 1365 1367 1369 1370 1372 1376 1378 1381 1384 1385 1386 1387 1388 1388 1388 1389 1389 1389 1389 1389 1390 1389 1386 1384 1382 1380 1378 1375 1370 1367 1361 1357 1354 1350 1344 1339
1357 1357 1356 1358 1360 1362 1365 1369 1372 1375 1377 1378 1380 1382 1383 1384 1385 1385 1385 1385 1384 1384 1385 1385 1383 1381 1379 1378 1373 1370 1367 1361 1358 1353 1349 1345 1340 1335
1347 1348 1348 1349 1351 1354 1358 1362 1364 1367 1370 1372 1374 1375 1376 1377 1380 1380 1381 1381 1380 1380 1380 1380 1379 1377 1375 1374 1371 1366 1362 1360 1356 1352 1348 1342 1335 1327
1341 1341 1342 1342 1343 1345 1349 1353 1356 1359 1361 1363 1366 1368 1370 1371 1373 1375 1376 1376 1377 1378 1376 1375 1375 1373 1371 1369 1367 1363 1357 1354 1352 1350 1346 1342 1336 1328
1334 1335 1335 1336 1336 1338 1342 1346 1348 1351 1353 1356 1358 1361 1364 1365 1367 1369 1371 1371 1372 1373 1372 1371 1371 1370 1368 1366 1364 1360 1357 1352 1347 1344 1342 1340 1334 1329